Tracking 19193 objects as of 22-Jun-2018
HD Live streaming from Space Station
objects crossing your sky now

FENGYUN 1C DEB

Track FENGYUN 1C DEB now!
10-day predictions


NORAD ID: 37044
Int'l Code: 1999-025EEC
Perigee: 639.0 km
Apogee: 1,534.1 km
Inclination: 98.9 °
Period: 106.8 minutes
Semi major axis: 7457 km
RCS: 0.0003 m2 (small)
Launch date: May 10, 1999
Source: People's Republic of China (PRC)
Launch site: Taiyaun Space Center, China (TSC)

Note: This is SATELLITE DEBRIS
aabbcc
Your satellite tracking list
Your tracking list is empty




NASA's NSSDC Master Catalog

Two Line Element Set (TLE):
1 37044U 99025EEC 18172.08165784 +.00000012 +00000-0 +29362-4 0  9990
2 37044 098.9401 129.5856 0600113 356.2223 003.4488 13.48050734469079
Source of the keplerian elements: AFSPC